H1 CPF 2 NER 2021 8 12 9 224 01 glonass142 H2 2001801 9142 45358 2021 8 12 0 0 0 2021 8 15 23 45 0 900 1 1 0 0 0 1 H9 10 0 59438 0.00000 0 -4446601.849 -18915989.180 -16502472.931 10 0 59438 900.00000 0 -3176752.852 -17154666.468 -18589240.851 10 0 59438 1800.00000 0 -1622255.273 -15318596.917 -20314357.726 10 0 59438 2700.00000 0 198904.007 -13471917.896 -21644309.578 10 0 59438 3600.00000 0 2256466.676 -11675754.427 -22553286.344 10 0 59438 4500.00000 0 4508925.320 -9985742.466 -23023680.094 10 0 59438 5400.00000 0 6905024.735 -8449802.790 -23046422.312 10 0 59438 6300.00000 0 9385680.227 -7106258.191 -22621154.207 10 0 59438 7200.00000 0 11886233.179 -5982371.950 -21756227.271 10 0 59438 8100.00000 0 14338950.240 -5093367.586 -20468534.620 10 0 59438 9000.00000 0 16675662.438 -4441969.521 -18783176.721 10 0 59438 9900.00000 0 18830434.521 -4018482.490 -16732968.311 10 0 59438 10800.00000 0 20742153.803 -3801404.745 -14357796.248 10 0 59438 11700.00000 0 22356931.041 -3758547.820 -11703840.854 10 0 59438 12600.00000 0 23630213.700 -3848614.395 -8822675.989 10 0 59438 13500.00000 0 24528524.025 -4023166.556 -5770265.410 10 0 59438 14400.00000 0 25030750.014 -4228900.488 -2605874.967 10 0 59438 15300.00000 0 25128936.017 -4410130.783 609078.044 10 0 59438 16200.00000 0 24828540.744 -4511378.886 3812215.923 10 0 59438 17100.00000 0 24148152.620 -4479955.900 6941408.835 10 0 59438 18000.00000 0 23118675.194 -4268430.384 9935976.726 10 0 59438 18900.00000 0 21782017.319 -3836876.738 12737861.715 10 0 59438 19800.00000 0 20189343.388 -3154809.055 15292748.516 10 0 59438 20700.00000 0 18398957.093 -2202718.702 17551111.456 10 0 59438 21600.00000 0 16473907.202 -973150.419 19469168.450 10 0 59438 22500.00000 0 14479415.050 528728.986 21009724.122 10 0 59438 23400.00000 0 12480230.714 2285094.095 22142886.362 10 0 59438 24300.00000 0 10538027.421 4265959.308 22846643.189 10 0 59438 25200.00000 0 8708941.979 6430192.894 23107289.226 10 0 59438 26100.00000 0 7041362.913 8727005.984 22919693.810 10 0 59438 27000.00000 0 5574057.627 11097856.210 22287405.569 10 0 59438 27900.00000 0 4334715.912 13478688.507 21222591.095 10 0 59438 28800.00000 0 3338970.031 15802421.275 19745808.290 10 0 59438 29700.00000 0 2589931.840 18001575.792 17885617.893 10 0 59438 30600.00000 0 2078266.057 20010940.333 15678039.646 10 0 59438 31500.00000 0 1782796.453 21770158.451 13165862.601 10 0 59438 32400.00000 0 1671619.421 23226133.597 10397821.910 10 0 59438 33300.00000 0 1703677.895 24335149.362 7427657.251 10 0 59438 34200.00000 0 1830729.113 25064616.054 4313070.721 10 0 59438 35100.00000 0 1999622.669 25394369.733 1114604.289 10 0 59438 36000.00000 0 2154791.922 25317468.421 -2105541.213 10 0 59438 36900.00000 0 2240852.456 24840451.338 -5284721.899 10 0 59438 37800.00000 0 2205196.427 23983049.756 -8361077.060 10 0 59438 38700.00000 0 2000471.637 22777361.337 -11274740.991 10 0 59438 39600.00000 0 1586839.003 21266522.674 -13969015.766 10 0 59438 40500.00000 0 933911.461 19502936.125 -16391481.267 10 0 59438 41400.00000 0 22290.983 17546125.808 -18495020.224 10 0 59438 42300.00000 0 -1155362.430 15460313.402 -20238737.740 10 0 59438 43200.00000 0 -2593775.943 13311815.889 -21588757.361 10 0 59438 44100.00000 0 -4275047.598 11166374.691 -22518878.286 10 0 59438 45000.00000 0 -6169169.975 9086528.199 -23011081.266 10 0 59438 45900.00000 0 -8235072.493 7129137.450 -23055873.863 10 0 59438 46800.00000 0 -10422139.281 5343167.876 -22652468.969 10 0 59438 47700.00000 0 -12672139.494 3767819.062 -21808793.625 10 0 59438 48600.00000 0 -14921489.868 2431079.499 -20541328.541 10 0 59438 49500.00000 0 -17103755.377 1348765.297 -18874781.774 10 0 59438 50400.00000 0 -19152283.888 524081.555 -16841603.231 10 0 59438 51300.00000 0 -21002865.207 -52277.007 -14481349.596 10 0 59438 52200.00000 0 -22596303.823 -401492.099 -11839912.071 10 0 59438 53100.00000 0 -23880798.208 -555482.838 -8968622.097 10 0 59438 54000.00000 0 -24814027.668 -555311.107 -5923252.413 10 0 59438 54900.00000 0 -25364859.883 -449199.757 -2762932.955 10 0 59438 55800.00000 0 -25514608.175 -290248.302 450997.179 10 0 59438 56700.00000 0 -25257786.398 -133943.355 3656179.310 10 0 59438 57600.00000 0 -24602330.356 -35569.571 6790443.144 10 0 59438 58500.00000 0 -23569276.984 -47630.828 9793009.557 10 0 59438 59400.00000 0 -22191915.162 -217390.838 12605664.992 10 0 59438 60300.00000 0 -20514443.964 -584637.190 15173884.957 10 0 59438 61200.00000 0 -18590194.603 -1179763.262 17447885.155 10 0 59438 62100.00000 0 -16479490.257 -2022249.113 19383580.483 10 0 59438 63000.00000 0 -14247232.735 -3119605.691 20943433.990 10 0 59438 63900.00000 0 -11960316.122 -4466827.381 22097180.007 10 0 59438 64800.00000 0 -9684974.353 -6046376.815 22822408.146 10 0 59438 65700.00000 0 -7484172.214 -7828703.857 23104997.390 10 0 59438 66600.00000 0 -5415147.418 -9773278.515 22939392.132 10 0 59438 67500.00000 0 -3527205.001 -11830096.314 22328714.868 10 0 59438 68400.00000 0 -1859854.918 -13941595.036 21284713.038 10 0 59438 69300.00000 0 -441369.657 -16044904.492 19827540.427 10 0 59438 70200.00000 0 712178.625 -18074336.906 17985376.513 10 0 59438 71100.00000 0 1597361.756 -19964015.208 15793890.065 10 0 59438 72000.00000 0 2223301.698 -21650530.105 13295556.335 10 0 59438 72900.00000 0 2611043.435 -23075515.264 10538840.086 10 0 59438 73800.00000 0 2792421.204 -24188032.683 7577259.420 10 0 59438 74700.00000 0 2808466.041 -24946667.781 4468348.173 10 0 59438 75600.00000 0 2707422.303 -25321245.576 1272536.791 10 0 59438 76500.00000 0 2542457.547 -25294094.903 -1948026.358 10 0 59438 77400.00000 0 2369163.437 -24860806.587 -5130689.706 10 0 59438 78300.00000 0 2242954.533 -24030452.802 -8213524.845 10 0 59438 79200.00000 0 2216476.302 -22825257.723 -11136539.713 10 0 59438 80100.00000 0 2337133.433 -21279732.921 -13842853.906 10 0 59438 81000.00000 0 2644844.403 -19439313.716 -16279812.385 10 0 59438 81900.00000 0 3170118.598 -17358553.844 -18400015.202 10 0 59438 82800.00000 0 3932538.398 -15098954.523 -20162242.655 10 0 59438 83700.00000 0 4939711.303 -12726519.237 -21532257.761 10 0 59438 84600.00000 0 6186737.176 -10309136.884 -22483470.560 10 0 59438 85500.00000 0 7656213.655 -7913902.935 -22997451.608 10 0 59439 0.00000 0 9318780.062 -5604490.391 -23064285.246 10 0 59439 900.00000 0 11134177.750 -3438679.957 -22682756.269 10 0 59439 1800.00000 0 13052781.944 -1466151.444 -21860367.109 10 0 59439 2700.00000 0 15017542.456 273371.554 -20613185.476 10 0 59439 3600.00000 0 16966251.332 1751548.996 -18965526.044 10 0 59439 4500.00000 0 18834043.282 2952364.503 -16949472.513 10 0 59439 5400.00000 0 20556024.408 3872541.290 -14604249.595 10 0 59439 6300.00000 0 22069919.546 4521418.172 -11975457.169 10 0 59439 7200.00000 0 23318627.602 4920292.644 -9114181.618 10 0 59439 8100.00000 0 24252578.173 5101260.377 -6076001.648 10 0 59439 9000.00000 0 24831791.042 5105601.509 -2919907.956 10 0 59439 9900.00000 0 25027552.479 4981783.004 292842.092 10 0 59439 10800.00000 0 24823638.437 4783162.420 3499912.447 10 0 59439 11700.00000 0 24217033.636 4565490.817 6639095.909 10 0 59439 12600.00000 0 23218116.696 4384320.749 9649517.661 10 0 59439 13500.00000 0 21850303.727 4292429.160 12472811.565 10 0 59439 14400.00000 0 20149165.402 4337364.138 15054246.673 10 0 59439 15300.00000 0 18161054.373 4559219.079 17343782.426 10 0 59439 16200.00000 0 15941300.113 4988728.213 19297032.650 10 0 59439 17100.00000 0 13552046.025 5645763.821 20876120.373 10 0 59439 18000.00000 0 11059818.324 6538298.721 22050407.519 10 0 59439 18900.00000 0 8532927.037 7661878.177 22797086.059 10 0 59439 19800.00000 0 6038806.166 8999624.336 23101619.693 10 0 59439 20700.00000 0 3641402.580 10522774.103 22958027.819 10 0 59439 21600.00000 0 1398720.985 12191729.422 22369006.329 10 0 59439 22500.00000 0 -639374.047 13957577.572 21345882.604 10 0 59439 23400.00000 0 -2433008.446 15764019.503 19908404.985 10 0 59439 24300.00000 0 -3953725.194 17549627.100 18084369.969 10 0 59439 25200.00000 0 -5185428.208 19250336.242 15909093.274 10 0 59439 26100.00000 0 -6124804.532 20802072.226 13424733.993 10 0 59439 27000.00000 0 -6781207.568 22143398.106 10679483.892 10 0 59439 27900.00000 0 -7176006.552 23218074.984 7726636.736 10 0 59439 28800.00000 0 -7341429.897 23977426.365 4623555.205 10 0 59439 29700.00000 0 -7318951.588 24382406.520 1430555.275 10 0 59439 30600.00000 0 -7157289.291 24405284.875 -1790270.123 10 0 59439 31500.00000 0 -6910099.489 24030874.383 -4976264.659 10 0 59439 32400.00000 0 -6633468.141 23257251.083 -8065435.025 10 0 59439 33300.00000 0 -6383304.175 22095933.510 -10997665.412 10 0 59439 34200.00000 0 -6212747.387 20571513.650 -13715895.309 10 0 59439 35100.00000 0 -6169701.720 18720754.418 -16167236.852 10 0 59439 36000.00000 0 -6294599.505 16591191.292 -18304009.213 10 0 59439 36900.00000 0 -6618492.249 14239296.760 -20084669.394 10 0 59439 37800.00000 0 -7161549.519 11728284.580 -21474621.126 10 0 59439 38700.00000 0 -7932030.010 9125645.853 -22446886.269 10 0 59439 39600.00000 0 -8925768.653 6500520.026 -22982625.919 10 0 59439 40500.00000 0 -10126201.755 3921010.456 -23071501.629 10 0 59439 41400.00000 0 -11504929.392 1451556.150 -22711870.296 10 0 59439 42300.00000 0 -13022791.589 -849531.270 -21910809.515 10 0 59439 43200.00000 0 -14631413.285 -2932263.709 -20683973.448 10 0 59439 44100.00000 0 -16275153.413 -4756815.518 -19055282.405 10 0 59439 45000.00000 0 -17893376.481 -6294929.896 -17056452.514 10 0 59439 45900.00000 0 -19422951.546 -7530835.763 -14726374.780 10 0 59439 46800.00000 0 -20800873.961 -8461638.600 -12110355.705 10 0 59439 47700.00000 0 -21966900.064 -9097170.696 -9259234.308 10 0 59439 48600.00000 0 -22866084.413 -9459308.915 -6228392.756 10 0 59439 49500.00000 0 -23451113.270 -9580790.372 -3076679.847 10 0 59439 50400.00000 0 -23684336.499 -9503577.300 134731.563 10 0 59439 51300.00000 0 -23539412.726 -9276841.289 3343530.921 10 0 59439 52200.00000 0 -23002498.834 -8954652.897 6487477.062 10 0 59439 53100.00000 0 -22072933.934 -8593474.795 9505602.422 10 0 59439 54000.00000 0 -20763389.158 -8249564.697 12339391.195 10 0 59439 54900.00000 0 -19099476.867 -7976397.895 14933908.784 10 0 59439 55800.00000 0 -17118835.400 -7822218.122 17238860.964 10 0 59439 56700.00000 0 -14869727.191 -7827819.947 19209562.820 10 0 59439 57600.00000 0 -12409208.094 -8024656.043 20807799.330 10 0 59439 58500.00000 0 -9800943.464 -8433348.987 22002561.567 10 0 59439 59400.00000 0 -7112760.860 -9062670.375 22770644.971 10 0 59439 60300.00000 0 -4414039.956 -9909030.609 23097098.642 10 0 59439 61200.00000 0 -1773046.935 -10956501.486 22975517.239 10 0 59439 62100.00000 0 745677.182 -12177371.711 22408169.921 10 0 59439 63000.00000 0 3083767.064 -13533213.321 21405963.531 10 0 59439 63900.00000 0 5191221.568 -14976415.710 19988240.174 10 0 59439 64800.00000 0 7028240.173 -16452124.430 18182412.260 10 0 59439 65700.00000 0 8566631.566 -17900504.774 16023441.045 10 0 59439 66600.00000 0 9790736.102 -19259236.236 13553167.731 10 0 59439 67500.00000 0 10697823.978 -20466133.823 10819509.047 10 0 59439 68400.00000 0 11297952.788 -21461786.351 7875532.054 10 0 59439 69300.00000 0 11613290.658 -22192100.550 4778425.641 10 0 59439 70200.00000 0 11676933.827 -22610643.301 1588388.457 10 0 59439 71100.00000 0 11531269.017 -22680682.385 -1632545.008 10 0 59439 72000.00000 0 11225950.300 -22376838.540 -4821716.734 10 0 59439 72900.00000 0 10815576.871 -21686277.936 -7917071.578 10 0 59439 73800.00000 0 10357170.920 -20609393.516 -10858372.984 10 0 59439 74700.00000 0 9907563.443 -19159945.425 -13588383.214 10 0 59439 75600.00000 0 9520799.784 -17364653.695 -16053984.265 10 0 59439 76500.00000 0 9245675.759 -15262259.670 -18207216.894 10 0 59439 77400.00000 0 9123509.532 -12902095.181 -20006216.973 10 0 59439 78300.00000 0 9186244.166 -10342219.257 -21416030.774 10 0 59439 79200.00000 0 9454961.517 -7647200.216 -22409293.413 10 0 59439 80100.00000 0 9938870.507 -4885635.836 -22966757.544 10 0 59439 81000.00000 0 10634812.545 -2127514.928 -23077662.534 10 0 59439 81900.00000 0 11527304.962 558470.025 -22739937.541 10 0 59439 82800.00000 0 12589120.513 3107547.629 -21960235.135 10 0 59439 83700.00000 0 13782378.486 5461321.248 -20753795.339 10 0 59439 84600.00000 0 15060101.461 7569950.485 -19144143.174 10 0 59439 85500.00000 0 16368172.177 9393970.734 -17162625.917 10 0 59440 0.00000 0 17647608.264 10905676.556 -14847799.294 10 0 59440 900.00000 0 18837059.204 12090012.634 -12244674.315 10 0 59440 1800.00000 0 19875420.834 12944937.279 -9403840.322 10 0 59440 2700.00000 0 20704456.891 13481244.073 -6380480.214 10 0 59440 3600.00000 0 21271318.318 13721852.159 -3233297.870 10 0 59440 4500.00000 0 21530853.689 13700595.554 -23378.392 10 0 59440 5400.00000 0 21447613.999 13460564.344 3186996.526 10 0 59440 6300.00000 0 20997467.436 13052068.611 6335555.105 10 0 59440 7200.00000 0 20168756.239 12530311.802 9361240.298 10 0 59440 8100.00000 0 18962946.929 11952872.175 12205389.685 10 0 59440 9000.00000 0 17394746.355 11377098.833 14812867.805 10 0 59440 9900.00000 0 15491678.326 10857532.132 17133129.251 10 0 59440 10800.00000 0 13293137.931 10443457.021 19121192.506 10 0 59440 11700.00000 0 10848962.229 10176692.105 20738506.285 10 0 59440 12600.00000 0 8217576.011 10089707.206 21953692.234 10 0 59440 13500.00000 0 5463788.644 10204148.417 22743150.322 10 0 59440 14400.00000 0 2656332.314 10529832.658 23091515.694 10 0 59440 15300.00000 0 -134757.364 11064254.233 22991958.499 10 0 59440 16200.00000 0 -2840811.017 11792624.648 22446320.937 10 0 59440 17100.00000 0 -5397135.994 12688444.892 21465088.622 10 0 59440 18000.00000 0 -7745460.340 13714587.183 20067196.255 10 0 59440 18900.00000 0 -9836109.730 14824841.989 18279670.541 10 0 59440 19800.00000 0 -11629827.605 15965866.520 16137116.260 10 0 59440 20700.00000 0 -13099163.107 17079453.839 13681054.370 10 0 59440 21600.00000 0 -14229369.328 18105027.959 10959123.960 10 0 59440 22500.00000 0 -15018774.509 18982260.300 8024162.619 10 0 59440 23400.00000 0 -15478610.789 19653697.233 4933182.586 10 0 59440 24300.00000 0 -15632307.968 20067287.504 1746262.272 10 0 59440 25200.00000 0 -15514282.325 20178702.031 -1474625.167 10 0 59440 26100.00000 0 -15168272.041 19953347.021 -4666822.869 10 0 59440 27000.00000 0 -14645290.204 19367984.101 -7768216.620 10 0 59440 27900.00000 0 -14001282.754 18411887.670 -10718451.739 10 0 59440 28800.00000 0 -13294591.377 17087489.342 -13460115.685 10 0 59440 29700.00000 0 -12583329.705 15410481.132 -15939862.504 10 0 59440 30600.00000 0 -11922784.772 13409372.054 -18109456.447 10 0 59440 31500.00000 0 -11362954.453 11124516.056 -19926713.863 10 0 59440 32400.00000 0 -10946325.606 8606651.551 -21356324.871 10 0 59440 33300.00000 0 -10705987.147 5915013.286 -22370538.861 10 0 59440 34200.00000 0 -10664157.829 3115095.350 -22949700.774 10 0 59440 35100.00000 0 -10831190.727 276158.381 -23082628.246 10 0 59440 36000.00000 0 -11205096.094 -2531415.413 -22766822.864 10 0 59440 36900.00000 0 -11771602.308 -5238809.626 -22008512.022 10 0 59440 37800.00000 0 -12504751.857 -7781392.216 -20822521.134 10 0 59440 38700.00000 0 -13368006.870 -10101157.156 -19231979.129 10 0 59440 39600.00000 0 -14315817.243 -12148888.496 -17267863.282 10 0 59440 40500.00000 0 -15295585.035 -13885958.003 -14968392.470 10 0 59440 41400.00000 0 -16249942.222 -15285682.900 -12378280.689 10 0 59440 42300.00000 0 -17119245.721 -16334188.502 -9547865.513 10 0 59440 43200.00000 0 -17844184.511 -17030741.392 -6532128.404 10 0 59440 44100.00000 0 -18368388.959 -17387540.828 -3389625.969 10 0 59440 45000.00000 0 -18640932.403 -17428978.696 -181353.069 10 0 59440 45900.00000 0 -18618619.556 -17190400.555 3030440.103 10 0 59440 46800.00000 0 -18267965.288 -16716421.120 6183453.907 10 0 59440 47700.00000 0 -17566780.404 -16058866.039 9216544.656 10 0 59440 48600.00000 0 -16505297.500 -15274427.343 12070906.207 10 0 59440 49500.00000 0 -15086789.251 -14422131.682 14691205.097 10 0 59440 50400.00000 0 -13327652.752 -13560728.059 17026647.487 10 0 59440 51300.00000 0 -11256955.640 -12746104.870 19031957.804 10 0 59440 52200.00000 0 -8915462.101 -12028844.582 20668250.762 10 0 59440 53100.00000 0 -6354178.341 -11452018.423 21903780.490 10 0 59440 54000.00000 0 -3632476.829 -11049313.311 22714552.981 10 0 59440 54900.00000 0 -815875.909 -10843569.324 23084790.517 10 0 59440 55800.00000 0 2026434.385 -10845788.966 23007239.414 10 0 59440 56700.00000 0 4824219.108 -11054659.867 22483315.198 10 0 59440 57600.00000 0 7508870.220 -11456611.315 21523082.168 10 0 59440 58500.00000 0 10016013.701 -12026402.844 20145067.188 10 0 59440 59400.00000 0 12287944.810 -12728220.975 18375910.494 10 0 59440 60300.00000 0 14275791.040 -13517238.892 16249859.270 10 0 59440 61200.00000 0 15941313.207 -14341574.353 13808112.753 10 0 59440 62100.00000 0 17258269.901 -15144564.083 11098030.518 10 0 59440 63000.00000 0 18213288.454 -15867259.285 8172218.416 10 0 59440 63900.00000 0 18806205.941 -16451037.047 5087509.379 10 0 59440 64800.00000 0 19049866.010 -16840217.123 1903858.606 10 0 59440 65700.00000 0 18969380.209 -16984572.794 -1316825.311 10 0 59440 66600.00000 0 18600885.184 -16841628.658 -4511890.035 10 0 59440 67500.00000 0 17989848.650 -16378646.931 -7619165.675 10 0 59440 68400.00000 0 17188996.306 -15574216.850 -10578182.729 10 0 59440 69300.00000 0 16255948.069 -14419378.605 -13331357.000 10 0 59440 70200.00000 0 15250664.444 -12918233.006 -15825117.484 10 0 59440 71100.00000 0 14232811.809 -11088009.911 -18010954.538 10 0 59440 72000.00000 0 13259158.723 -8958591.576 -19846367.277 10 0 59440 72900.00000 0 12381113.803 -6571510.138 -21295691.584 10 0 59440 73800.00000 0 11642509.393 -3978460.578 -22330792.648 10 0 59440 74700.00000 0 11077724.564 -1239391.042 -22931608.809 10 0 59440 75600.00000 0 10710226.287 1579750.160 -23086536.661 10 0 59440 76500.00000 0 10551589.747 4409517.275 -22792650.491 10 0 59440 77400.00000 0 10601038.359 7179615.624 -22055752.403 10 0 59440 78300.00000 0 10845522.072 9821586.208 -20890252.713 10 0 59440 79200.00000 0 11260329.820 12271415.412 -19318883.405 10 0 59440 80100.00000 0 11810209.547 14471961.908 -17372250.566 10 0 59440 81000.00000 0 12450947.950 16375100.810 -15088234.728 10 0 59440 81900.00000 0 13131342.767 17943496.898 -12511250.872 10 0 59440 82800.00000 0 13795484.056 19151934.198 -9691382.594 10 0 59440 83700.00000 0 14385247.901 19988147.833 -6683407.314 10 0 59440 84600.00000 0 14842897.136 20453124.844 -3545731.451 10 0 59440 85500.00000 0 15113679.217 20560862.774 -339256.452 10 0 59441 0.00000 0 15148311.566 20337597.605 2873802.222 10 0 59441 900.00000 0 14905249.058 19820534.589 6031120.570 10 0 59441 1800.00000 0 14352639.113 19056136.557 9071471.509 10 0 59441 2700.00000 0 13469879.807 18098042.143 11935908.319 10 0 59441 3600.00000 0 12248717.224 17004702.184 14568902.466 10 0 59441 4500.00000 0 10693834.001 15836833.742 16919414.325 10 0 59441 5400.00000 0 8822904.319 14654798.675 18941876.603 10 0 59441 6300.00000 0 6666111.852 13516016.540 20597072.002 10 0 59441 7200.00000 0 4265149.803 12472519.917 21852888.765 10 0 59441 8100.00000 0 1671743.311 11568754.140 22684940.154 10 0 59441 9000.00000 0 -1054245.763 10839713.083 23077036.412 10 0 59441 9900.00000 0 -3847054.390 10309488.654 23021500.389 10 0 59441 10800.00000 0 -6637503.066 9990294.489 22519320.830 10 0 59441 11700.00000 0 -9355628.027 9882004.626 21580140.109 10 0 59441 12600.00000 0 -11933353.018 9972226.694 20222076.130 10 0 59441 13500.00000 0 -14307090.853 10236906.876 18471381.046 10 0 59441 14400.00000 0 -16420167.483 10641441.755 16361942.384 10 0 59441 15300.00000 0 -18224968.209 11142250.880 13934635.218 10 0 59441 16200.00000 0 -19684716.860 11688744.356 11236536.890 10 0 59441 17100.00000 0 -20774813.735 12225602.887 8320018.600 10 0 59441 18000.00000 0 -21483676.132 12695274.142 5241730.975 10 0 59441 18900.00000 0 -21813046.142 13040579.743 2061502.980 10 0 59441 19800.00000 0 -21777752.637 13207322.037 -1158824.339 10 0 59441 20700.00000 0 -21404937.463 13146779.446 -4356606.079 10 0 59441 21600.00000 0 -20732778.669 12817983.575 -7469619.464 10 0 59441 22500.00000 0 -19808764.999 12189680.302 -10437282.841 10 0 59441 23400.00000 0 -18687595.079 11241890.464 -13201842.829 10 0 59441 24300.00000 0 -17428790.728 9967002.683 -15709505.623 10 0 59441 25200.00000 0 -16094125.893 8370350.852 -17911489.638 10 0 59441 26100.00000 0 -14744980.470 6470250.753 -19764978.374 10 0 59441 27000.00000 0 -13439731.152 4297493.247 -21233954.726 10 0 59441 27900.00000 0 -12231289.611 1894314.433 -22289900.554 10 0 59441 28800.00000 0 -11164891.740 -687114.627 -22912348.108 10 0 59441 29700.00000 0 -10276230.706 -3386616.054 -23089273.102 10 0 59441 30600.00000 0 -9590011.719 -6138271.116 -22817322.362 10 0 59441 31500.00000 0 -9118988.499 -8872929.872 -22101872.235 10 0 59441 32400.00000 0 -8863520.828 -11520860.473 -20956917.192 10 0 59441 33300.00000 0 -8811670.698 -14014428.360 -19404791.261 10 0 59441 34200.00000 0 -8939831.787 -16290694.415 -17475728.091 10 0 59441 35100.00000 0 -9213864.704 -18293824.676 -15207268.417 10 0 59441 36000.00000 0 -9590689.124 -19977212.150 -12643526.568 10 0 59441 36900.00000 0 -10020264.929 -21305223.199 -9834330.404 10 0 59441 37800.00000 0 -10447878.077 -22254496.770 -6834251.416 10 0 59441 38700.00000 0 -10816634.231 -22814743.388 -3701543.874 10 0 59441 39600.00000 0 -11070054.512 -22989011.642 -497013.751 10 0 59441 40500.00000 0 -11154663.491 -22793412.293 2717160.536 10 0 59441 41400.00000 0 -11022459.962 -22256312.666 5878632.644 10 0 59441 42300.00000 0 -10633166.048 -21417036.122 8926094.614 10 0 59441 43200.00000 0 -9956159.559 -20324122.006 11800461.666 10 0 59441 44100.00000 0 -8972007.905 -19033219.628 14446012.748 10 0 59441 45000.00000 0 -7673538.565 -17604704.952 16811465.002 10 0 59441 45900.00000 0 -6066400.524 -16101119.956 18850961.865 10 0 59441 46800.00000 0 -4169092.201 -14584541.704 20524956.315 10 0 59441 47700.00000 0 -2012453.643 -13113990.896 21800972.738 10 0 59441 48600.00000 0 361357.181 -11742987.718 22654233.394 10 0 59441 49500.00000 0 2900362.911 -10517356.537 23068137.873 10 0 59441 50400.00000 0 5544679.304 -9473370.585 23034586.597 10 0 59441 51300.00000 0 8228764.000 -8636313.616 22554142.200 10 0 59441 52200.00000 0 10883909.719 -8019518.219 21636025.457 10 0 59441 53100.00000 0 13440879.767 -7623920.861 20297945.298 10 0 59441 54000.00000 0 15832577.620 -7438152.195 18565765.430 10 0 59441 54900.00000 0 17996640.552 -7439158.993 16473013.015 10 0 59441 55800.00000 0 19877849.880 -7593331.841 14060237.874 10 0 59441 56700.00000 0 21430257.675 -7858091.393 11374233.612 10 0 59441 57600.00000 0 22618941.109 -8183866.565 8467134.855 10 0 59441 58500.00000 0 23421310.785 -8516381.215 5395407.552 10 0 59441 59400.00000 0 23827917.891 -8799152.472 2218751.665 10 0 59441 60300.00000 0 23842725.928 -8976094.509 -1001062.418 10 0 59441 61200.00000 0 23482835.285 -8994116.719 -4201400.572 10 0 59441 62100.00000 0 22777672.170 -8805605.159 -7319990.610 10 0 59441 63000.00000 0 21767676.162 -8370680.840 -10296142.176 10 0 59441 63900.00000 0 20502542.030 -7659137.829 -13071936.028 10 0 59441 64800.00000 0 19039090.485 -6651977.678 -15593358.661 10 0 59441 65700.00000 0 17438858.224 -5342473.909 -17811359.372 10 0 59441 66600.00000 0 15765509.478 -3736720.340 -19682808.543 10 0 59441 67500.00000 0 14082178.639 -1853638.999 -21171338.246 10 0 59441 68400.00000 0 12448856.085 275553.687 -22248048.811 10 0 59441 69300.00000 0 10919927.274 2608400.791 -22892067.818 10 0 59441 70200.00000 0 9541968.225 5092735.362 -23090951.134 10 0 59441 71100.00000 0 8351889.334 7668624.064 -22840918.764 10 0 59441 72000.00000 0 7375504.596 10270643.189 -22146921.539 10 0 59441 72900.00000 0 6626585.059 12830392.587 -21022537.928 10 0 59441 73800.00000 0 6106434.883 15279143.228 -19489703.460 10 0 59441 74700.00000 0 5804006.362 17550508.467 -17578278.415 10 0 59441 75600.00000 0 5696547.603 19583028.371 -15325462.404 10 0 59441 76500.00000 0 5750754.185 21322560.009 -12775067.393 10 0 59441 77400.00000 0 5924375.098 22724374.725 -9976663.394 10 0 59441 78300.00000 0 6168204.184 23754875.698 -6984613.488 10 0 59441 79200.00000 0 6428372.185 24392864.942 -3857016.955 10 0 59441 80100.00000 0 6648842.024 24630307.697 -654581.170 10 0 59441 81000.00000 0 6774001.418 24472563.193 2560555.744 10 0 59441 81900.00000 0 6751242.982 23938073.080 5726028.674 10 0 59441 82800.00000 0 6533422.622 23057521.410 8780452.167 10 0 59441 83700.00000 0 6081092.246 21872502.131 11664606.718 10 0 59441 84600.00000 0 5364412.343 20433750.406 14322581.936 10 0 59441 85500.00000 0 4364663.567 18799012.180 16702854.655 99